| time (UTC) | temp F | wind direction | speed MPH | gust MPH | rain 1hr in | rain 24hr in | rain mn in | humidity % | barometer mb |
| 20260503024534 | 56 | 360 | 2.0 | 4.0 | 0.00 | 0.00 | 0.00 | 45 | 1013.5 |
| 20260503023030 | 58 | 0 | 0.0 | 0.0 | 0.00 | 0.00 | 0.00 | 42 | 1013.3 |
| 20260503021528 | 61 | 0 | 0.0 | 0.0 | 0.00 | 0.00 | 0.00 | 40 | 1013.3 |
| 20260503020032 | 62 | 0 | 0.0 | 3.0 | 0.00 | 0.00 | 0.00 | 40 | 1013.3 |
| 20260503014530 | 63 | 212 | 1.0 | 6.0 | 0.00 | 0.00 | 0.00 | 39 | 1013.4 |
| 20260503013029 | 65 | 0 | 0.0 | 3.0 | 0.00 | 0.00 | 0.00 | 37 | 1013.5 |
| 20260503011532 | 65 | 0 | 1.0 | 5.0 | 0.00 | 0.00 | 0.00 | 36 | 1013.5 |
| 20260503010031 | 66 | 252 | 1.0 | 12.0 | 0.00 | 0.00 | 0.00 | 36 | 1013.5 |
| 20260503004530 | 67 | 291 | 1.0 | 6.0 | 0.00 | 0.00 | 0.00 | 36 | 1013.7 |
| 20260503003031 | 67 | 202 | 3.0 | 6.0 | 0.00 | 0.00 | 0.00 | 37 | 1013.8 |
| 20260503001532 | 65 | 198 | 3.0 | 6.0 | 0.00 | 0.00 | 0.00 | 39 | 1013.9 |
| 20260503000033 | 65 | 89 | 1.0 | 3.0 | 0.00 | 0.00 | 0.00 | 38 | 1014.0 |
| 20260502234531 | 65 | 340 | 3.0 | 6.0 | 0.00 | 0.00 | 0.00 | 38 | 1014.2 |
| 20260502233030 | 66 | 326 | 2.0 | 6.0 | 0.00 | 0.00 | 0.00 | 36 | 1014.3 |
| 20260502231530 | 67 | 35 | 1.0 | 5.0 | 0.00 | 0.00 | 0.00 | 36 | 1014.4 |
| 20260502230032 | 66 | 36 | 3.0 | 8.0 | 0.00 | 0.00 | 0.00 | 38 | 1014.7 |
| 20260502224530 | 65 | 84 | 5.0 | 11.0 | 0.00 | 0.00 | 0.00 | 38 | 1014.9 |
| 20260502223029 | 66 | 71 | 9.0 | 14.0 | 0.00 | 0.00 | 0.00 | 37 | 1015.1 |
| 20260502221529 | 67 | 165 | 5.0 | 9.0 | 0.00 | 0.00 | 0.00 | 37 | 1015.2 |
| 20260502220028 | 65 | 116 | 2.0 | 7.0 | 0.00 | 0.00 | 0.00 | 39 | 1015.4 |
| 20260502214528 | 65 | 162 | 5.0 | 11.0 | 0.00 | 0.00 | 0.00 | 40 | 1015.7 |
| 20260502213039 | 63 | 132 | 6.0 | 12.0 | 0.00 | 0.00 | 0.00 | 41 | 1016.0 |
| 20260502211532 | 63 | 74 | 6.0 | 10.0 | 0.00 | 0.00 | 0.00 | 42 | 1016.1 |
| 20260502210029 | 63 | 81 | 7.0 | 15.0 | 0.00 | 0.00 | 0.00 | 42 | 1016.2 |
| 20260502204531 | 63 | 94 | 4.0 | 13.0 | 0.00 | 0.00 | 0.00 | 42 | 1016.2 |
| 20260502203029 | 63 | 80 | 8.0 | 14.0 | 0.00 | 0.00 | 0.00 | 42 | 1016.3 |
| 20260502201532 | 63 | 31 | 4.0 | 16.0 | 0.00 | 0.00 | 0.00 | 41 | 1016.4 |
| 20260502200032 | 66 | 69 | 9.0 | 13.0 | 0.00 | 0.00 | 0.00 | 38 | 1016.6 |
| 20260502194530 | 63 | 53 | 1.0 | 12.0 | 0.00 | 0.00 | 0.00 | 41 | 1016.7 |
| 20260502193030 | 63 | 316 | 4.0 | 10.0 | 0.00 | 0.00 | 0.00 | 42 | 1017.0 |
| 20260502191529 | 63 | 49 | 6.0 | 13.0 | 0.00 | 0.00 | 0.00 | 41 | 1017.1 |
| 20260502190030 | 63 | 345 | 9.0 | 13.0 | 0.00 | 0.00 | 0.00 | 41 | 1017.3 |
| 20260502184529 | 63 | 276 | 3.0 | 8.0 | 0.00 | 0.00 | 0.00 | 41 | 1017.4 |
| 20260502183030 | 63 | 268 | 5.0 | 9.0 | 0.00 | 0.00 | 0.00 | 41 | 1017.3 |
| 20260502181541 | 63 | 275 | 3.0 | 8.0 | 0.00 | 0.00 | 0.00 | 42 | 1017.4 |
| 20260502163028 | 61 | 259 | 2.0 | 11.0 | 0.00 | 0.00 | 0.00 | 44 | 1017.8 |
| 20260502161530 | 60 | 271 | 5.0 | 9.0 | 0.00 | 0.00 | 0.00 | 45 | 1017.9 |
| 20260502151534 | 57 | 281 | 5.0 | 9.0 | 0.00 | 0.00 | 0.00 | 49 | 1017.9 |
| 20260502123031 | 49 | 44 | 13.0 | 17.0 | 0.00 | 0.00 | 0.00 | 56 | 1016.4 |
| 20260502121530 | 49 | 49 | 15.0 | 19.0 | 0.00 | 0.00 | 0.00 | 55 | 1016.2 |
| 20260502114532 | 50 | 53 | 18.0 | 23.0 | 0.00 | 0.00 | 0.00 | 54 | 1015.8 |
| 20260502113032 | 50 | 49 | 19.0 | 23.0 | 0.00 | 0.00 | 0.00 | 53 | 1015.6 |
| 20260502111533 | 50 | 43 | 16.0 | 20.0 | 0.00 | 0.00 | 0.00 | 53 | 1015.2 |
| 20260502110032 | 50 | 49 | 14.0 | 18.0 | 0.00 | 0.00 | 0.00 | 53 | 1015.1 |
| 20260502104530 | 45 | 62 | 9.0 | 14.0 | 0.00 | 0.00 | 0.00 | 60 | 1014.9 |
| 20260502103028 | 44 | 24 | 3.0 | 5.0 | 0.00 | 0.00 | 0.00 | 56 | 1014.9 |
| 20260502101536 | 43 | 340 | 4.0 | 6.0 | 0.00 | 0.00 | 0.00 | 57 | 1014.7 |
| 20260502091528 | 47 | 5 | 5.0 | 8.0 | 0.00 | 0.00 | 0.00 | 49 | 1014.1 |
| 20260502071532 | 44 | 327 | 3.0 | 5.0 | 0.00 | 0.00 | 0.00 | 49 | 1013.7 |
| 20260502070032 | 47 | 281 | 1.0 | 3.0 | 0.00 | 0.00 | 0.00 | 45 | 1013.7 |
| 20260502064546 | 49 | 281 | 2.0 | 4.0 | 0.00 | 0.00 | 0.00 | 43 | 1013.6 |
| 20260502063036 | 48 | 5 | 2.0 | 4.0 | 0.00 | 0.00 | 0.00 | 45 | 1013.4 |
| 20260502061530 | 49 | 5 | 3.0 | 5.0 | 0.00 | 0.00 | 0.00 | 43 | 1013.5 |
| 20260502060030 | 50 | 12 | 4.0 | 10.0 | 0.00 | 0.00 | 0.00 | 42 | 1013.5 |
| 20260502054531 | 50 | 9 | 9.0 | 11.0 | 0.00 | 0.00 | 0.00 | 41 | 1013.5 |
| 20260502053032 | 51 | 5 | 10.0 | 14.0 | 0.00 | 0.00 | 0.00 | 40 | 1013.4 |
| 20260502051537 | 50 | 351 | 11.0 | 13.0 | 0.00 | 0.00 | 0.00 | 40 | 1013.5 |
| 20260502050031 | 51 | 352 | 8.0 | 11.0 | 0.00 | 0.00 | 0.00 | 39 | 1013.4 |
| 20260502044536 | 52 | 11 | 4.0 | 8.0 | 0.00 | 0.00 | 0.00 | 37 | 1013.4 |
| 20260502043030 | 54 | 17 | 2.0 | 4.0 | 0.00 | 0.00 | 0.00 | 35 | 1013.4 |
| 20260502041530 | 54 | 321 | 0.0 | 7.0 | 0.00 | 0.00 | 0.00 | 33 | 1013.3 |
| 20260502040040 | 54 | 341 | 1.0 | 3.0 | 0.00 | 0.00 | 0.00 | 32 | 1013.2 |
| 20260502034530 | 55 | 0 | 1.0 | 2.0 | 0.00 | 0.00 | 0.00 | 31 | 1013.1 |
| 20260502033031 | 55 | 345 | 4.0 | 10.0 | 0.00 | 0.00 | 0.00 | 30 | 1013.0 |
| 20260502031531 | 59 | 295 | 5.0 | 8.0 | 0.00 | 0.00 | 0.00 | 27 | 1012.7 |
| 20260502030032 | 61 | 288 | 6.0 | 10.0 | 0.00 | 0.00 | 0.00 | 25 | 1012.7 |